Printer-friendly version

IAU Minor Planet Center

Minor Planet Center

MPEC 2006-W26 : 2006 WX

The following Minor Planet Electronic Circular may be linked-to from your own Web pages, but must not otherwise be redistributed electronically.


Read MPEC 2006-W25 Read MPEC 2006-W27


M.P.E.C. 2006-W26                                Issued 2006 Nov. 19, 04:21 UT

     The Minor Planet Electronic Circulars contain information on unusual
         minor planets and routine data on comets.  They are published
   on behalf of Commission 20 of the International Astronomical Union by the
          Minor Planet Center, Smithsonian Astrophysical Observatory,
                          Cambridge, MA 02138, U.S.A.

             Prepared using the Tamkin Foundation Computer Network

                              MPC@CFA.HARVARD.EDU
          URL http://cfa-www.harvard.edu/iau/mpc.html  ISSN 1523-6714

                                    2006 WX

Observations:
     K06W00X* C2006 11 18.33755 04 02 21.94 -11 44 15.7          17.9 V EW026703
     K06W00X  C2006 11 18.34403 04 02 41.17 -11 44 48.0          17.6 V EW026703
     K06W00X  C2006 11 18.35053 04 03 00.39 -11 45 19.9          17.6 V EW026703
     K06W00X  C2006 11 18.35705 04 03 19.62 -11 45 51.5          17.5 V EW026703
     K06W00X  C2006 11 18.38153 04 04 31.54 -11 47 49.0          17.9 V EW026703
     K06W00X  C2006 11 18.38212 04 04 33.24 -11 47 52.1          18.1 V EW026703
     K06W00X  C2006 11 18.38243 04 04 34.14 -11 47 53.2          17.9 V EW026703
     K06W00X  C2006 11 18.40102 04 05 28.43 -11 49 19.4          17.9 V EW026703
     K06W00X  C2006 11 18.40132 04 05 29.27 -11 49 21.2          18.0 V EW026703
     K06W00X  C2006 11 18.40162 04 05 30.11 -11 49 22.4          18.2 V EW026703
     K06W00X  C2006 11 18.62795 04 16 37.77 -11 58 16.4          18.0 V EW026E12
     K06W00X  C2006 11 18.62848 04 16 39.21 -11 58 18.8          18.3 V EW026E12
     K06W00X  C2006 11 18.62902 04 16 40.62 -11 58 20.2          18.4 V EW026E12
     K06W00X  C2006 11 18.62956 04 16 42.02 -11 58 22.6          17.9 V EW026E12
     K06W00X  C2006 11 18.63008 04 16 43.35 -11 58 24.9          17.7 V EW026E12
     K06W00X  C2006 11 18.63094 04 16 45.62 -11 58 28.7          18.3 V EW026E12
     K06W00X  C2006 11 18.63147 04 16 47.02 -11 58 30.2          18.3 V EW026E12
     K06W00X  C2006 11 18.63200 04 16 48.39 -11 58 32.4          18.0 V EW026E12
     K06W00X  C2006 11 18.63253 04 16 49.80 -11 58 34.5          18.0 V EW026E12
     K06W00X  C2006 11 18.63313 04 16 51.27 -11 58 36.9          18.1 V EW026E12
     K06W00X  C2006 11 19.04966 04 34 29.94 -12 30 14.5                 EW026J95
     K06W00X  C2006 11 19.05210 04 34 35.38 -12 30 21.1                 EW026J95
     K06W00X  C2006 11 19.05317 04 34 37.64 -12 30 23.2                 EW026J95
     K06W00X  C2006 11 19.05426 04 34 40.15 -12 30 26.9          18.2 R EW026J95

Observer details:
703 Catalina Sky Survey.  Observer E. J. Christensen.  Measurers E. C. Beshore,
    E. J. Christensen, G. J. Garradd, A. R. Gibbs, A. D. Grauer, R. E. Hill,
    R. A. Kowalski, S. M. Larson, R. H. McNaught.  0.68-m Schmidt + CCD.
E12 Siding Spring Survey.  Observer D. M. Burton.  Measurers E. C. Beshore,
    E. J. Christensen, G. J. Garradd, A. R. Gibbs, A. D. Grauer, R. E. Hill,
    R. A. Kowalski, S. M. Larson, R. H. McNaught.  0.5-m Uppsala Schmidt + CCD.
J95 Great Shefford.  Observer P. Birtwhistle.  0.40-m f/6.0 Schmidt-Cassegrain
    + CCD.

Orbital elements:
2006 WX                                                  Earth MOID = 0.0066 AU
Epoch 2006 Sept. 22.0 TT = JDT 2454000.5                MPC
M 349.03450              (2000.0)            P               Q
n   0.25357584     Peri.  165.90440     +0.78524335     -0.60755650
a   2.4720892      Node   232.14715     +0.55243150     +0.77455642
e   0.6010064      Incl.    8.70108     +0.27966465     +0.17589044
P   3.89           H   25.2           G   0.15           U   6
Residuals in seconds of arc
061118 703  0.3-  0.0     061118 703  0.3+  0.5-    061118 E12  0.3+  0.2+
061118 703  0.1-  0.0     061118 703  0.2-  0.4-    061118 E12  0.1+  0.0
061118 703  0.1-  0.2+    061118 E12  0.6-  0.1+    061118 E12  0.5+  0.0
061118 703  0.3-  0.5+    061118 E12  0.2+  0.2-    061118 E12  0.9-  0.0
061118 703  0.3+  0.1+    061118 E12  0.2+  0.5+    061119 J95  0.1-  0.0
061118 703  0.1-  0.2-    061118 E12  0.1+  0.2+    061119 J95  0.6+  0.2-
061118 703  0.2-  0.1+    061118 E12  0.3-  0.0     061119 J95  1.0-  0.5+
061118 703  0.8+  0.1-    061118 E12  0.0   0.4-    061119 J95  0.5+  0.3-

Ephemeris:
2006 WX                  a,e,i = 2.47, 0.60, 9                   q = 0.9863
Date    TT    R. A. (2000) Decl.     Delta      r     Elong.  Phase     V
2006 11 11    20 50.03   +09 59.0    0.0322   0.991    89.8    88.4    20.8
2006 11 13    21 38.89   +07 50.8    0.0223   0.993    98.8    79.9    19.7
2006 11 15    23 27.38   +01 56.3    0.0147   0.997   120.8    58.5    18.1
2006 11 17    02 30.27   -08 13.7    0.0142   1.001   149.4    30.2    17.3
2006 11 19    04 32.56   -12 21.8    0.0212   1.006   145.4    33.9    18.3
2006 11 21    05 27.11   -13 04.7    0.0311   1.011   138.6    40.3    19.3
2006 11 23    05 54.52   -13 06.4    0.0418   1.018   135.2    43.1    20.0
2006 11 25    06 10.38   -12 58.5    0.0529   1.025   133.8    44.0    20.6
2006 11 27    06 20.47   -12 47.7    0.0641   1.032   133.4    44.0    21.0
2006 11 29    06 27.29   -12 35.5    0.0755   1.040   133.6    43.4    21.4
2006 12 01    06 32.10   -12 22.4    0.0870   1.049   134.2    42.4    21.6
2006 12 03    06 35.56   -12 08.3    0.0985   1.058   135.0    41.3    21.9
2006 12 05    06 38.06   -11 53.3    0.110    1.067   135.9    40.0    22.1
2006 12 07    06 39.88   -11 37.3    0.122    1.078   137.0    38.6    22.3
2006 12 09    06 41.16   -11 20.2    0.134    1.088   138.1    37.2    22.5
2006 12 11    06 42.03   -11 01.9    0.146    1.099   139.3    35.7    22.7

Gareth V. Williams           (C) Copyright 2006 MPC           M.P.E.C. 2006-W26

Read MPEC 2006-W25 Read MPEC 2006-W27


Our Web policy. Index to the CBAT/MPC/ICQ pages.


Valid HTML 4.01!